Location: Nianha
(10.8000°N, 4.6333°W)
Time: 16:44:13
(UTC+00:00)

Cosmos 1340 Rocket - Pass Details

Date: 14 November 2019
Orbit: 528 x 560 km, 81.2° (Epoch: 20 January)

Event Time Altitude Azimuth Distance (km) Brightness Sun altitude
Exits shadow 04:38:42 39° 195° (SSW) 833 3.6 -23.2°
Drops below altitude 10° 04:41:20 10° 182° (S) 1,815 5.6 -22.6°
Sets 04:43:29 0° 180° (S) 2,703 6.6 -22.0°
